KD7KCN-5 Weather Reports


Display with metric or nautical units.
time (UTC)temp
F
wind
direction
speed
MPH
gust
MPH
rain 1hr
in
rain 24hr
in
rain mn
in
humidity
%
barometer
mb
20260903002541 77 153 15.0 33.0 0.00 0.00 0.00 9 1014.0
20260903000541 78 117 12.0 33.0 0.00 0.00 0.00 10 1013.9
20260902235541 78 130 17.0 27.0 0.00 0.00 0.00 9 1013.9
20260902234541 78 130 17.0 27.0 0.00 0.00 0.00 9 1013.8
20260902224541 78 237 15.0 31.0 0.00 0.00 0.00 9 1014.3
20260902222541 78 139 20.0 37.0 0.00 0.00 0.00 9 1014.1
20260902221541 77 193 15.0 29.0 0.00 0.00 0.00 9 1014.5
20260902214542 78 143 21.0 35.0 0.00 0.00 0.00 9 1014.6
20260902211541 78 143 19.0 37.0 0.00 0.00 0.00 10 1015.0
20260902210541 78 147 13.0 30.0 0.00 0.00 0.00 10 1015.3
20260902204542 77 135 24.0 36.0 0.00 0.00 0.00 11 1015.1
20260902201541 76 170 10.0 35.0 0.00 0.00 0.00 12 1015.6
20260902200541 75 131 18.0 39.0 0.00 0.00 0.00 12 1015.6
20260902195541 77 151 22.0 35.0 0.00 0.00 0.00 12 1015.8
20260902193541 75 138 23.0 34.0 0.00 0.00 0.00 14 1016.0
20260902192543 75 135 15.0 31.0 0.00 0.00 0.00 14 1016.2
20260902184541 74 142 23.0 33.0 0.00 0.00 0.00 16 1016.4
20260902183541 73 142 21.0 36.0 0.00 0.00 0.00 17 1016.5
20260902182720 73 129 12.0 34.0 0.00 0.00 0.00 16 1016.7
20260902182541 73 129 12.0 34.0 0.00 0.00 0.00 16 1016.7
20260902180541 74 130 20.0 34.0 0.00 0.00 0.00 16 1016.8
20260902165541 71 156 23.0 39.0 0.00 0.00 0.00 17 1016.9
20260902163541 70 128 28.0 40.0 0.00 0.00 0.00 18 1016.8
20260902161541 70 139 21.0 35.0 0.00 0.00 0.00 20 1016.9
20260902160636 70 142 20.0 32.0 0.00 0.00 0.00 21 1016.9
20260902160541 70 142 20.0 32.0 0.00 0.00 0.00 21 1016.9
20260902154800 69 125 15.0 33.0 0.00 0.00 0.00 24 1016.9
20260902154541 69 144 17.0 33.0 0.00 0.00 0.00 23 1016.9
20260902153541 69 125 15.0 33.0 0.00 0.00 0.00 24 1016.9
20260902151541 68 147 19.0 34.0 0.00 0.00 0.00 24 1017.0
20260902150541 68 128 17.0 28.0 0.00 0.00 0.00 23 1017.0
20260902145541 68 127 11.0 24.0 0.00 0.00 0.00 23 1017.1
20260902144542 67 116 16.0 25.0 0.00 0.00 0.00 23 1017.1
20260902143541 67 125 13.0 19.0 0.00 0.00 0.00 23 1017.1
20260902142543 66 114 13.0 17.0 0.00 0.00 0.00 22 1016.9
20260902141542 65 115 11.0 18.0 0.00 0.00 0.00 23 1017.0
20260902140542 64 122 10.0 14.0 0.00 0.00 0.00 23 1017.0
20260902140142 63 123 12.0 15.0 0.00 0.00 0.00 23 1017.0
20260902135542 63 123 12.0 15.0 0.00 0.00 0.00 23 1017.0
20260902134542 63 120 11.0 15.0 0.00 0.00 0.00 23 1016.9
20260902133542 63 122 8.0 16.0 0.00 0.00 0.00 23 1016.8
20260902132542 63 123 9.0 13.0 0.00 0.00 0.00 23 1016.6
20260902131542 63 124 11.0 19.0 0.00 0.00 0.00 23 1016.4
20260902130542 64 130 6.0 16.0 0.00 0.00 0.00 22 1016.4
20260902125542 65 141 7.0 29.0 0.00 0.00 0.00 22 1016.3
20260902124542 64 136 8.0 22.0 0.00 0.00 0.00 22 1016.2
20260902123542 65 131 12.0 27.0 0.00 0.00 0.00 22 1016.3
20260902122542 65 194 11.0 18.0 0.00 0.00 0.00 23 1016.2
20260902120542 65 119 5.0 17.0 0.00 0.00 0.00 24 1016.3
20260902115542 65 124 8.0 16.0 0.00 0.00 0.00 24 1016.2
20260902114542 66 138 3.0 14.0 0.00 0.00 0.00 24 1016.1
20260902113542 66 115 7.0 17.0 0.00 0.00 0.00 24 1016.0
20260902112543 67 135 8.0 24.0 0.00 0.00 0.00 24 1016.1
20260902110542 67 145 7.0 24.0 0.00 0.00 0.00 24 1016.0
20260902103543 68 157 5.0 25.0 0.00 0.00 0.00 24 1015.1
20260902095542 68 147 10.0 32.0 0.00 0.00 0.00 24 1015.2
20260902092543 68 154 14.0 27.0 0.00 0.00 0.00 24 1015.6
20260902090543 68 151 12.0 22.0 0.00 0.00 0.00 25 1015.5
20260902083542 68 142 7.0 14.0 0.00 0.00 0.00 26 1015.7
20260902082544 69 156 3.0 13.0 0.00 0.00 0.00 25 1015.8
20260902081543 69 211 5.0 18.0 0.00 0.00 0.00 25 1015.8
20260902080543 69 135 4.0 16.0 0.00 0.00 0.00 25 1015.8
20260902075543 70 136 7.0 21.0 0.00 0.00 0.00 25 1015.7
20260902073543 69 154 10.0 17.0 0.00 0.00 0.00 25 1015.5
20260902071545 70 156 11.0 19.0 0.00 0.00 0.00 24 1015.6
20260902070544 70 146 9.0 19.0 0.00 0.00 0.00 24 1015.6
20260902065544 70 168 8.0 15.0 0.00 0.00 0.00 24 1015.6
20260902064543 70 153 7.0 19.0 0.00 0.00 0.00 24 1015.6
20260902063545 69 230 9.0 15.0 0.00 0.00 0.00 25 1015.6
20260902062618 69 0 0.0 5.0 0.00 0.00 0.00 23 1015.7
20260902062543 69 0 0.0 5.0 0.00 0.00 0.00 23 1015.7
20260902061543 69 0 0.0 2.0 0.00 0.00 0.00 23 1015.7
20260902060543 69 124 1.0 6.0 0.00 0.00 0.00 22 1015.7
20260902055543 70 118 1.0 6.0 0.00 0.00 0.00 22 1015.8
20260902054543 71 105 2.0 11.0 0.00 0.00 0.00 21 1015.8
20260902053543 71 205 2.0 17.0 0.00 0.00 0.00 22 1015.8
20260902052544 71 216 12.0 17.0 0.00 0.00 0.00 22 1015.8
20260902051543 71 90 8.0 17.0 0.00 0.00 0.00 21 1015.8
20260902050543 71 158 9.0 18.0 0.00 0.00 0.00 22 1016.0
20260902045543 70 126 4.0 8.0 0.00 0.00 0.00 21 1016.0
20260902044550 71 121 3.0 11.0 0.00 0.00 0.00 1016.0
20260902043637 72 118 3.0 7.0 0.00 0.00 0.00 20 1015.9
20260902043543 72 118 3.0 7.0 0.00 0.00 0.00 20 1015.9
20260902042546 72 161 2.0 6.0 0.00 0.00 0.00 20 1016.0
20260902041544 72 184 4.0 13.0 0.00 0.00 0.00 20 1016.0
20260902040543 72 195 2.0 6.0 0.00 0.00 0.00 19 1016.0
20260902035544 72 0 0.0 6.0 0.00 0.00 0.00 19 1015.1
20260902034543 72 193 1.0 6.0 0.00 0.00 0.00 19 1014.9
20260902033543 72 0 0.0 11.0 0.00 0.00 0.00 19 1014.8
20260902032546 72 0 0.0 11.0 0.00 0.00 0.00 19 1014.8
20260902030543 73 161 5.0 14.0 0.00 0.00 0.00 20 1015.2
20260902025546 73 169 11.0 16.0 0.00 0.00 0.00 19 1015.0
20260902024544 74 176 8.0 14.0 0.00 0.01 0.00 20 1014.9
20260902023544 74 156 12.0 22.0 0.00 0.01 0.00 20 1014.8
20260902022544 74 203 11.0 17.0 0.00 0.01 0.00 22 1014.7
20260902021543 74 194 6.0 17.0 0.00 0.01 0.00 30 1014.6
20260902020543 75 118 7.0 23.0 0.00 0.01 0.00 34 1014.4
20260902015543 75 130 12.0 26.0 0.00 0.02 0.00 35 1014.4
20260902014543 75 108 9.0 27.0 0.00 0.02 0.00 35 1014.5
20260902013543 75 115 15.0 32.0 0.00 0.02 0.00 35 1014.5
20260902011544 75 154 19.0 29.0 0.00 0.02 0.00 35 1014.7
20260902010544 75 136 19.0 26.0 0.00 0.02 0.00 35 1014.7
20260902005546 75 119 15.0 23.0 0.00 0.02 0.00 36 1014.8
20260902004545 75 155 17.0 30.0 0.00 0.02 0.00 36 1015.0
20260902003544 75 111 12.0 26.0 0.00 0.02 0.00 35 1015.0